Location: Glash�tten
(50.2140°N, 8.4010°E)
Time: 00:40:23
(UTC+02:00)

ISS - Visible Passes

Search period start: 27 March 2023 00:00
Search period end: 06 April 2023 00:00
Orbit: 414 x 422 km, 51.6° (Epoch: 26 March)

Date Brightness Start Highest point End Pass type
(mag) Time Alt. Az. Time Alt. Az. Time Alt. Az.
27 Mar -3.6 20:30:59 10° WNW 20:34:20 72° N 20:37:30 11° E visible
27 Mar -2.7 22:07:49 10° W 22:10:26 39° WSW 22:10:26 39° WSW visible
28 Mar -3.6 21:19:42 10° WNW 21:23:02 62° SSW 21:24:18 33° SE visible
29 Mar -3.7 20:31:34 10° WNW 20:34:55 82° SSW 20:38:10 11° ESE visible
29 Mar -1.9 22:08:41 10° W 22:11:05 22° SW 22:11:05 22° SW visible
30 Mar -2.5 21:20:17 10° W 21:23:20 32° SSW 21:24:57 20° SSE visible
31 Mar -3.0 20:31:58 10° WNW 20:35:12 46° SSW 20:38:25 10° SE visible
31 Mar -1.0 22:10:41 10° SW 22:11:18 10° SW 22:11:44 10° SW visible
01 Apr -1.3 21:21:08 10° W 21:23:15 16° SW 21:25:23 10° S visible
02 Apr -1.8 20:32:23 10° W 20:35:07 23° SW 20:37:51 10° SSE visible
